Skip Page Navigation
NASA JPL Caltech
NASA Logo - Jet Propulsion Laboratory + View the NASA Portal
+ Center for Near-Earth Object Studies
JPL Home Earth Solar System Stars & Galaxies Technology
JPL Solar System Dynamics
BODIES ORBITS EPHEMERIDES TOOLS PHYSICAL DATA DISCOVERY FAQ SITE MAP
JPL Small-Body Database Browser
Search: [ help ]  
(2016 VP2)
Classification: Amor [NEO]          SPK-ID: 3763416
Ephemeris | Orbit Diagram | Orbital Elements | Mission Design | Physical Parameters | Close-Approach Data ]

[ show orbit diagram ]
Orbital Elements at Epoch 2457700.5 (2016-Nov-08.0) TDB
Reference: JPL 5 (heliocentric ecliptic J2000)
 Element Value Uncertainty (1-sigma)   Units 
e .1569523598822448 0.001416  
a 1.209132111682857 0.0024549 au
q 1.019355973344831 0.00035753 au
i 28.7370739403348 0.10591 deg
node 51.26955754841591 0.0033775 deg
peri 39.62659751985185 0.23512 deg
M 326.1450975289873 0.28091 deg
tp 2457746.169696538121
(2016-Dec-23.66969654)
0.23986 TDB
period 485.6339718538781
1.33
1.479
0.004049
d
yr
n .7412990459166643 0.0022576 deg/d
Q 1.398908250020884 0.0028403 au
  Orbit Determination Parameters
   # obs. used (total)      26  
   data-arc span      15 days  
   first obs. used      2016-11-06  
   last obs. used      2016-11-21  
   planetary ephem.      DE431  
   SB-pert. ephem.      SB431-N16  
   condition code      8  
   norm. resid. RMS      .51338  
   source      ORB  
   producer      Otto Matic  
   solution date      2017-Apr-06 08:22:22  

Additional Information
 Earth MOID = .0618914 au 
 Jupiter MOID = 3.87195 au 
 T_jup = 5.138 
[ show covariance matrix ]

Ephemeris | Orbit Diagram | Orbital Elements | Mission Design | Physical Parameters | Close-Approach Data ]

Physical Parameter Table
Parameter Symbol Value Units Sigma Reference Notes
absolute magnitude H 23.7   n/a MPO397900  

[ show close-approach data ]
Ephemeris | Orbit Diagram | Orbital Elements | Mission Design | Physical Parameters | Close-Approach Data ]
ABOUT SSD CREDITS/AWARDS PRIVACY/COPYRIGHT GLOSSARY LINKS
FirstGov 2020-Oct-23 03:57 UT
(server date/time)  
NASA Home Page
Site Manager:   Ryan S. Park
Webmaster  Alan B. Chamberlin